sat.trackr.live / text

‹ back to catalog

2024-205P

NORAD 61907 · 2024-205P

PAYLOAD ACTIVE UNKNOWN

§ Identity

Operator
Country
PRC
Launch date
2024-11-11
Launch site
JSC
Launch vehicle
Mass (kg)
RCS (m²)

External: N2YO · Heavens-Above · Gunter

§ Orbital elements

Epoch: 2026-05-25T04:31:14.320416Z

Period
94.93 min
Inclination
97.4131°
Eccentricity
0.0013286
Mean motion
15.16948648 rev/d
Perigee alt
505.9 km
Apogee alt
524.2 km
Semi-major
6,893.2 km
B*
1.9318e-4
RAAN
218.1426°
Arg perigee
133.8974°
Mean anomaly
226.3358°
Rev number
8,484

§ Raw data

2024-205P1 61907U 24205P   26145.18836019  .00003753  00000+0  19318-3 0  99922 61907  97.4131 218.1426 0013286 133.8974 226.3358 15.16948648 84844

JSON: /api/v1/satellites/61907 · /tle

For live sub-satellite position, see the globe view (requires WebGL).

§ Visibility from observer

Set your observer location to see the next 7 days of passes ≥ 10°. The values pass through the URL so the page stays shareable.

No JS? Fill the form by hand. The geolocation button needs JavaScript.